[[{"header":{"parameterUnit":"m.s-1","parameterCategory":1,"la1":30.2991,"la2":30.254,"lo1":-89.0895,"lo2":-89.0444,"dy":0.0017,"dx":0.0017,"nx":28,"ny":28,"refTime":"2024-10-07T21:00:00:Z","depth":0,"parameterNumber":2,"parameterNumberName":"U-component_of_WINDS"},"data":[0,0,0,0,0,0,0,0,0,0,0,0,0,0,0,0,0,0,0,0,0,0,0,0,0,0,0,0,0,0,0,0,0,0,0,0,0,0,0,0,0,0,0,0,0,0,0,0,0,0,0,0,0,0,0,0,0,0,-2.092,-2.092,0,-2.0965,-2.0965,-2.0966,-2.0956,-2.0955,-2.0954,-2.0953,-2.1001,-2.1003,-2.1005,0,0,0,0,0,0,0,0,0,0,0,0,0,-2.0825,-2.0827,-2.092,-2.092,-2.0921,-2.0965,-2.0965,-2.0966,-2.0956,-2.0955,-2.0954,-2.0953,-2.1,-2.1003,-2.1005,0,0,0,0,0,0,0,0,0,0,0,0,0,-2.0868,-2.0828,-2.0919,-2.0921,-2.0921,-2.0965,-2.0965,-2.0966,-2.0956,-2.0955,-2.0953,-2.0952,-2.0999,-2.1002,-2.1005,-2.105,0,0,-2.1015,-2.1016,0,0,0,0,0,0,0,0,-2.0866,-2.0871,-2.092,-2.0921,-2.0922,-2.0953,-2.095,-2.0994,-2.0956,-2.0943,-2.0953,-2.0952,-2.0986,-2.099,-2.1002,-2.1053,-2.1055,-2.1015,-2.1017,-2.1018,-2.1019,0,0,0,0,0,0,0,-2.0863,-2.0869,-2.0937,-2.0921,-2.0922,-2.092,-2.0924,-2.0958,-2.0971,-2.0944,-2.0943,-2.0949,-2.0986,-2.0999,-2.1003,-2.1055,-2.1015,-2.1018,-2.102,-2.1021,-2.1146,-2.1147,0,0,0,0,0,0,-2.0859,-2.0867,-2.0936,-2.0939,-2.089,-2.0922,-2.0928,-2.0944,-2.0971,-2.0974,-2.095,-2.0948,-2.0994,-2.0999,-2.1004,-2.1058,-2.1018,-2.1021,-2.1023,-2.1144,-2.1146,-2.1147,0,0,0,0,0,0,-2.0857,-2.0865,-2.0934,-2.0903,-2.0911,-2.0925,-2.0944,-2.0946,-2.0958,-2.0975,-2.0978,-2.096,-2.0993,-2.1,-2.1039,-2.106,-2.1023,-2.1025,-2.1142,-2.1145,-2.1147,-2.1167,0,0,0,0,0,0,-2.0854,-2.0864,-2.0881,-2.0903,-2.0913,-2.0968,-2.0946,-2.0948,-2.0963,-2.0962,-2.0985,-2.0988,-2.0993,-2.1034,-2.1042,-2.1064,-2.1028,-2.1141,-2.1143,-2.1146,-2.1165,-2.117,-2.1174,0,0,0,0,0,-2.0851,-2.0886,-2.0882,-2.0891,-2.0935,-2.0969,-2.0975,-2.0979,-2.0965,-2.0982,-2.0993,-2.0987,-2.1057,-2.1038,-2.1047,-2.107,-2.1139,-2.1143,-2.1146,-2.1163,-2.1169,-2.1174,0,0,0,0,0,0,-2.0866,-2.0889,-2.0885,-2.0928,-2.0947,-2.0967,-2.0989,-2.0985,-2.1008,-2.1006,-2.1011,-2.1016,-2.1056,-2.1067,-2.1046,-2.1115,-2.1096,-2.1101,-2.1106,-2.1112,-2.1117,-2.1113,-2.1031,0,0,0,0,0,-2.0875,-2.09,-2.0919,-2.0955,-2.0964,-2.0975,-2.099,-2.0992,-2.1011,-2.1019,-2.1033,-2.1053,-2.1079,-2.1096,-2.1121,-2.1166,-2.1172,-2.1187,-2.1191,-2.1195,-2.1199,-2.1224,-2.1231,-2.1158,-2.1158,-2.1158,0,0,-2.0892,-2.0907,-2.0923,-2.0958,-2.0973,-2.0999,-2.0982,-2.1011,-2.1031,-2.1024,-2.1061,-2.1072,-2.1095,-2.1137,-2.1156,-2.1147,-2.1221,-2.1199,-2.1202,-2.1204,-2.1228,-2.1235,-2.1241,-2.116,-2.116,-2.116,0,0,-2.0937,-2.0952,-2.0983,-2.0998,-2.102,-2.1027,-2.1035,-2.1056,-2.1063,-2.1101,-2.1096,-2.112,-2.1165,-2.1181,-2.1196,-2.1247,-2.1243,-2.1256,-2.128,-2.1304,-2.131,-2.1315,-2.1333,-2.134,-2.126,-2.126,-2.126,0,-2.0956,-2.0996,-2.1,-2.1029,-2.1045,-2.1039,-2.1071,-2.1086,-2.1116,-2.1127,-2.1116,-2.1172,-2.1187,-2.1233,-2.1246,-2.1257,-2.1266,-2.1253,-2.1309,-2.1314,-2.1319,-2.1336,-2.1343,-2.1261,-2.1261,-2.1261,-2.1261,0,-2.1018,-2.1046,-2.1069,-2.1097,-2.1115,-2.1145,-2.1154,-2.1172,-2.1172,-2.1181,-2.1219,-2.1237,-2.1265,-2.1276,-2.1277,-2.1323,-2.1316,-2.1307,-2.1289,-2.1327,-2.1343,-2.135,-2.1263,-2.1263,-2.1262,-2.1262,0,0,-2.1073,-2.1104,-2.1112,-2.1125,-2.1149,-2.1171,-2.1201,-2.1229,-2.1244,-2.1265,-2.1291,-2.1329,-2.1321,-2.1337,-2.134,-2.1361,-2.1401,-2.1349,-2.135,-2.1358,-2.1452,-2.1458,-2.1465,-2.1398,-2.1399,-2.14,-2.1449,0,-2.1121,-2.1174,-2.1178,-2.1227,-2.1252,-2.1248,-2.1275,-2.1293,-2.1302,-2.1325,-2.1335,-2.1362,-2.1349,-2.1359,-2.138,-2.1391,-2.1419,-2.1388,-2.1422,-2.1423,-2.1416,-2.1474,-2.148,-2.1526,-2.1456,-2.1457,-2.1458,0,-2.1182,-2.1205,-2.1255,-2.1276,-2.1287,-2.1311,-2.1336,-2.1359,-2.138,-2.1385,-2.1403,-2.1402,-2.1434,-2.1415,-2.1459,-2.1438,-2.1452,-2.146,-2.1462,-2.1465,-2.1442,-2.1478,-2.1541,-2.1547,-2.1468,-2.1467,-2.1467,0,-2.1217,-2.126,-2.1296,-2.1307,-2.1332,-2.1349,-2.136,-2.138,-2.1396,-2.1419,-2.1429,-2.1456,-2.147,-2.1491,-2.1498,-2.1483,-2.1542,-2.1523,-2.1547,-2.1547,-2.1559,-2.1558,-2.1624,-2.1569,-2.1569,-2.1569,-2.1569,0,-2.1269,-2.13,-2.1312,-2.1333,-2.1368,-2.1373,-2.1408,-2.1418,-2.1436,-2.146,-2.1459,-2.1481,-2.149,-2.1514,-2.152,-2.1556,-2.1563,-2.1568,-2.1569,-2.1567,-2.1567,-2.1576,-2.1573,-2.1571,-2.1571,-2.157,-2.157,0,-2.1313,-2.1322,-2.1361,-2.1382,-2.1388,-2.1413,-2.1431,-2.1452,-2.1461,-2.1491,-2.1499,-2.1513,-2.1541,-2.1551,-2.1586,-2.159,-2.1631,-2.163,-2.1624,-2.1624,-2.1647,-2.1644,-2.1721,-2.1732,-2.167,-2.1671,-2.1671,0,-2.1345,-2.1369,-2.1392,-2.1408,-2.142,-2.1446,-2.1462,-2.1469,-2.1486,-2.1512,-2.153,-2.1559,-2.1581,-2.1628,-2.1641,-2.1668,-2.1667,-2.1692,-2.1671,-2.1669,-2.1667,-2.1665,-2.1667,-2.1696,-2.1696,-2.1697,-2.1697,0,-2.1401,-2.1404,-2.1428,-2.1453,-2.1473,-2.1493,-2.1513,-2.1526,-2.1536,-2.1555,-2.1584,-2.1602,-2.1638,-2.1666,-2.1693,-2.1706,-2.1703,-2.1704,-2.1711,-2.1709,-2.1705,-2.1707,-2.1634,-2.1702,-2.1702,-2.1701,-2.1701,-2.1701,-2.1439,-2.146,-2.148,-2.1506,-2.1522,-2.1541,-2.1561,-2.1573,-2.1597,-2.1626,-2.1629,-2.166,-2.1681,-2.1717,-2.1731,-2.1756,-2.1749,-2.1759,-2.1761,-2.1763,-2.1765,-2.1701,-2.1761,-2.1761,-2.1761,-2.1761,-2.1761,0,-2.1494,-2.1507,-2.1531,-2.1559,-2.158,-2.1576,-2.1597,-2.1615,-2.1643,-2.1662,-2.1684,-2.1718,-2.1745,-2.1761,-2.1789,-2.1806,-2.1805,-2.1813,-2.1811,-2.1814,-2.177,-2.1761,-2.1813,-2.1813,-2.1813,-2.1813,-2.1813,-2.1813,-2.1525,-2.156,-2.1566,-2.1609,-2.1621,-2.1652,-2.1664,-2.1682,-2.1697,-2.1734,-2.1757,-2.1767,-2.1785,-2.1814,-2.1839,-2.1843,-2.1853,-2.1861,-2.1865,-2.1823,-2.1817,-2.1812,-2.1804,-2.1864,-2.1864,-2.1907,-2.1907,-2.1907]},{"header":{"parameterUnit":"m.s-1","parameterCategory":1,"la1":30.2991,"la2":30.254,"lo1":-89.0895,"lo2":-89.0444,"dy":0.0017,"dx":0.0017,"nx":28,"ny":28,"refTime":"2024-10-07T21:00:00:Z","depth":0,"parameterNumber":3,"parameterNumberName":"V-component_of_WINDS"},"data":[0,0,0,0,0,0,0,0,0,0,0,0,0,0,0,0,0,0,0,0,0,0,0,0,0,0,0,0,0,0,0,0,0,0,0,0,0,0,0,0,0,0,0,0,0,0,0,0,0,0,0,0,0,0,0,0,0,0,-4.646,-4.6461,0,-4.6505,-4.6505,-4.6506,-4.652,-4.6519,-4.6519,-4.6519,-4.6561,-4.6563,-4.6564,0,0,0,0,0,0,0,0,0,0,0,0,0,-4.6386,-4.6387,-4.646,-4.6461,-4.6461,-4.6505,-4.6505,-4.6506,-4.652,-4.6519,-4.6519,-4.6519,-4.6561,-4.6563,-4.6564,0,0,0,0,0,0,0,0,0,0,0,0,0,-4.6423,-4.6387,-4.646,-4.6473,-4.6475,-4.6505,-4.6505,-4.6506,-4.652,-4.6519,-4.6519,-4.6519,-4.656,-4.6562,-4.6564,-4.6583,0,0,-4.657,-4.6571,0,0,0,0,0,0,0,0,-4.6421,-4.6426,-4.6471,-4.6473,-4.6474,-4.6506,-4.6495,-4.6532,-4.652,-4.6503,-4.6519,-4.6519,-4.6543,-4.6547,-4.6555,-4.6585,-4.6587,-4.6571,-4.6572,-4.6573,-4.6573,0,0,0,0,0,0,0,-4.6418,-4.6424,-4.6478,-4.6472,-4.6474,-4.6477,-4.6482,-4.6502,-4.6524,-4.6504,-4.6505,-4.651,-4.6544,-4.6554,-4.6557,-4.6587,-4.6571,-4.6572,-4.6574,-4.6574,-4.6637,-4.6638,0,0,0,0,0,0,-4.6414,-4.6422,-4.6476,-4.6479,-4.6446,-4.6479,-4.6484,-4.6496,-4.6524,-4.6528,-4.6511,-4.6511,-4.655,-4.6554,-4.6558,-4.6584,-4.6573,-4.6575,-4.6576,-4.6637,-4.6638,-4.6638,0,0,0,0,0,0,-4.6412,-4.6418,-4.6475,-4.6451,-4.6458,-4.648,-4.6494,-4.6497,-4.6507,-4.6529,-4.6533,-4.6516,-4.655,-4.6555,-4.6578,-4.6585,-4.6575,-4.6577,-4.6636,-4.6637,-4.6638,-4.6633,0,0,0,0,0,0,-4.641,-4.6418,-4.6425,-4.6451,-4.6459,-4.6493,-4.6494,-4.6499,-4.6511,-4.6512,-4.6535,-4.6539,-4.655,-4.6575,-4.658,-4.6588,-4.6579,-4.6636,-4.6637,-4.6638,-4.6633,-4.6634,-4.6635,0,0,0,0,0,-4.6407,-4.642,-4.6425,-4.6432,-4.6469,-4.6494,-4.6499,-4.6512,-4.6511,-4.6519,-4.6534,-4.6538,-4.6584,-4.6577,-4.6582,-4.6591,-4.6635,-4.6636,-4.6638,-4.6633,-4.6634,-4.6635,0,0,0,0,0,0,-4.6392,-4.6424,-4.6429,-4.6452,-4.647,-4.6496,-4.6506,-4.6513,-4.6531,-4.6531,-4.6546,-4.6552,-4.6573,-4.6584,-4.6576,-4.6612,-4.661,-4.6612,-4.6604,-4.6605,-4.6606,-4.6603,-4.658,0,0,0,0,0,-4.6392,-4.6411,-4.6437,-4.6454,-4.6463,-4.6483,-4.6494,-4.6504,-4.6523,-4.653,-4.6547,-4.6564,-4.6583,-4.6595,-4.6613,-4.6635,-4.6641,-4.6644,-4.6645,-4.6646,-4.6647,-4.6662,-4.6664,-4.6642,-4.6642,-4.6642,0,0,-4.6391,-4.6411,-4.6421,-4.6451,-4.6467,-4.6486,-4.6489,-4.6508,-4.6522,-4.6533,-4.6556,-4.6568,-4.659,-4.6613,-4.6623,-4.6623,-4.6655,-4.6647,-4.6647,-4.6649,-4.6664,-4.6666,-4.6668,-4.6642,-4.6642,-4.6642,0,0,-4.6399,-4.6415,-4.6432,-4.6449,-4.6473,-4.6487,-4.6491,-4.6517,-4.6526,-4.655,-4.656,-4.6576,-4.6607,-4.6623,-4.6635,-4.6653,-4.6658,-4.6658,-4.6663,-4.6677,-4.6679,-4.668,-4.6688,-4.669,-4.666,-4.666,-4.666,0,-4.6394,-4.6423,-4.644,-4.6459,-4.6473,-4.6487,-4.6505,-4.652,-4.6548,-4.6557,-4.6556,-4.6598,-4.6613,-4.6641,-4.6646,-4.6655,-4.6661,-4.6655,-4.6677,-4.6679,-4.6681,-4.6688,-4.6691,-4.666,-4.666,-4.666,-4.666,0,-4.6416,-4.6437,-4.6448,-4.6478,-4.6493,-4.6511,-4.6532,-4.6545,-4.6554,-4.6568,-4.6593,-4.6612,-4.6636,-4.6643,-4.6651,-4.6673,-4.6673,-4.6674,-4.6672,-4.6683,-4.669,-4.6693,-4.666,-4.666,-4.666,-4.666,0,0,-4.6413,-4.6456,-4.6459,-4.6474,-4.6504,-4.652,-4.654,-4.6565,-4.6577,-4.6597,-4.6614,-4.6643,-4.6646,-4.6659,-4.667,-4.6682,-4.6697,-4.6683,-4.6684,-4.6686,-4.6725,-4.6723,-4.6726,-4.6702,-4.6702,-4.6703,-4.6723,0,-4.6425,-4.6463,-4.6481,-4.651,-4.653,-4.6545,-4.6563,-4.6583,-4.6598,-4.6617,-4.6632,-4.6653,-4.6654,-4.6663,-4.6676,-4.6693,-4.6705,-4.6691,-4.6718,-4.6719,-4.6713,-4.673,-4.6728,-4.6746,-4.6726,-4.6727,-4.6727,0,-4.6443,-4.6466,-4.6499,-4.6529,-4.6538,-4.6554,-4.658,-4.6598,-4.6622,-4.6632,-4.6649,-4.666,-4.6682,-4.6679,-4.6711,-4.6701,-4.6713,-4.6724,-4.6725,-4.6727,-4.6723,-4.6734,-4.6752,-4.6755,-4.6731,-4.6731,-4.6731,0,-4.644,-4.6478,-4.6504,-4.6516,-4.6552,-4.6563,-4.6578,-4.6602,-4.6617,-4.664,-4.665,-4.6674,-4.6687,-4.6706,-4.6723,-4.6719,-4.6754,-4.6751,-4.6762,-4.6762,-4.6768,-4.6768,-4.6789,-4.6776,-4.6776,-4.6776,-4.6776,0,-4.6451,-4.647,-4.6503,-4.6518,-4.6541,-4.6562,-4.6584,-4.66,-4.6622,-4.6641,-4.6655,-4.6672,-4.6694,-4.6715,-4.6728,-4.6753,-4.6759,-4.6768,-4.6771,-4.6767,-4.6766,-4.6774,-4.6774,-4.6777,-4.6776,-4.6776,-4.6776,0,-4.645,-4.6472,-4.6501,-4.6534,-4.6543,-4.6558,-4.6587,-4.6602,-4.6619,-4.6643,-4.665,-4.6676,-4.6701,-4.6721,-4.6752,-4.6762,-4.6788,-4.6792,-4.6781,-4.6783,-4.6793,-4.6792,-4.6821,-4.6827,-4.6809,-4.6809,-4.6809,0,-4.6455,-4.6471,-4.6507,-4.6522,-4.6538,-4.6561,-4.6578,-4.66,-4.6616,-4.6647,-4.6659,-4.6686,-4.6708,-4.6748,-4.6769,-4.6794,-4.6799,-4.6807,-4.6802,-4.6798,-4.68,-4.6799,-4.6801,-4.6808,-4.6808,-4.6808,-4.6808,0,-4.6464,-4.6475,-4.6499,-4.6528,-4.6548,-4.6571,-4.6594,-4.6605,-4.6631,-4.6649,-4.6676,-4.6694,-4.6729,-4.6755,-4.6783,-4.6799,-4.6808,-4.681,-4.6814,-4.6809,-4.6803,-4.6808,-4.6783,-4.6809,-4.6808,-4.6808,-4.6808,-4.6808,-4.6467,-4.6483,-4.6512,-4.6538,-4.6559,-4.6582,-4.6599,-4.662,-4.6643,-4.6674,-4.6686,-4.6714,-4.674,-4.6779,-4.6796,-4.6818,-4.6818,-4.6824,-4.6825,-4.6826,-4.6827,-4.68,-4.6823,-4.6823,-4.6823,-4.6823,-4.6823,0,-4.6476,-4.6497,-4.6522,-4.6556,-4.6577,-4.6587,-4.6614,-4.6631,-4.6656,-4.6681,-4.6704,-4.6737,-4.6763,-4.6788,-4.6816,-4.683,-4.6835,-4.6836,-4.6835,-4.6839,-4.6824,-4.6818,-4.6832,-4.6832,-4.6832,-4.6832,-4.6832,-4.6832,-4.6484,-4.6513,-4.6528,-4.6567,-4.6587,-4.6617,-4.6632,-4.6653,-4.6673,-4.671,-4.6733,-4.675,-4.6775,-4.6806,-4.6831,-4.6838,-4.6848,-4.6848,-4.6856,-4.6841,-4.684,-4.6839,-4.6833,-4.685,-4.685,-4.6869,-4.687,-4.687]}]]